Location: Borgo
(42.3939°N, 9.2791°E)
Time: 23:42:10
(UTC+00:00)

ISS - Pass Details

Date: 01 May 2021
Orbit: 418 x 421 km, 51.6° (Epoch: 07 May)

Event Time Altitude Azimuth Distance (km) Brightness Sun altitude
Exits shadow 01:31:32 22° 86° (E) 986 -1.5 -25.0°
Drops below altitude 10° 01:33:01 10° 71° (ENE) 1,504 -0.2 -24.9°
Sets 01:35:13 0° 62° (ENE) 2,372 1.1 -24.6°
